Terminal Aerodrome Forecast
Issued by NWS Chicago, IL

Home | Current Version | Previous Version | Graphics & Text | Print | Product List | Glossary On
Versions: 1 2 3 4 5 6 7 8 9 10 11 12 13 14 15 16 17 18 19 20 21 22 23 24 25 26 27 28 29 30 31 32
000
FTUS43 KLOT 152201 AAB
TAFRFD
TAF AMD
KRFD 152201Z 1522/1618 09014G20KT P6SM BKN250
     FM160100 08009KT P6SM BKN120
     FM160600 09009KT P6SM VCSH OVC060
     FM160900 07005KT P6SM BKN025 PROB30 1609/1613 5SM -SHRA BR
     FM161500 05006KT P6SM OVC045=

USA.gov is the U.S. government's official web portal to all federal, state and local government web resources and services.